Weather History for Pella, IA

Change the Weather History Date:

Wednesday, April 23, 2014

  Actual Average (KOXV) Record (KOXV)
Temperature  
Mean Temperature 48 °F -  
Max Temperature 52 °F 65 °F 86 °F (1980)
Min Temperature 43 °F 42 °F 25 °F (1956)
Degree Days  
Heating Degree Days 18    
Moisture  
Dew Point 36 °F    
Average Humidity 65    
Maximum Humidity 82    
Minimum Humidity 48    
Precipitation  
Precipitation 0.01 in - - ()
Sea Level Pressure  
Sea Level Pressure 30.00 in    
Wind  
Wind Speed 10 mph (ESE)    
Max Wind Speed 23 mph    
Max Gust Speed 30 mph    
Visibility 10 miles    
Events Rain    
Averages and records for this station are not official NWS values.
T = Trace of Precipitation, MM = Missing Value Source: NWS Daily Summary

Daily Weather History Graph

Daily Weather History Graph

Search for Another Location

Airport:

Trip Planner

Search our weather history database for the weather conditions in past years. The results will help you decide how hot, cold, wet, or windy it might be!

Date:

Astronomy

Apr. 23, 2014 Rise Set
Actual Time 6:20 AM CDT 8:00 PM CDT
Civil Twilight 5:50 AM CDT 8:30 PM CDT
Nautical Twilight 5:15 AM CDT 9:05 PM CDT
Astronomical Twilight 4:37 AM CDT 9:44 PM CDT
Moon 2:56 AM CDT (4/23) 2:05 PM CDT (4/23)
Length of Visible Light 14h 39m
Length of Day
13h 40m
Waning Crescent, 34% of the Moon is Illuminated
Apr 23
Waning Crescent
Apr 29
New
May 6
First Quarter
May 14
Full
May 21
Last Quarter

Hourly Weather History & Observations

Time (CDT) Temp. Windchill Dew Point Humidity Pressure Visibility Wind Dir Wind Speed Gust Speed Precip Events Conditions
12:15 AM 52.9 °F - 33.8 °F 48% 30.06 in 10.0 mi ENE 6.9 mph - N/A   Clear
12:35 AM 52.5 °F - 34.2 °F 50% 30.06 in 10.0 mi ENE 4.6 mph - N/A   Clear
12:55 AM 52.2 °F - 34.2 °F 50% 30.07 in 10.0 mi East 5.8 mph - N/A   Clear
1:15 AM 52.3 °F - 33.8 °F 49% 30.07 in 10.0 mi East 5.8 mph - N/A   Clear
1:35 AM 52.2 °F - 33.8 °F 50% 30.07 in 10.0 mi East 5.8 mph - N/A   Clear
1:55 AM 51.8 °F - 33.8 °F 50% 30.07 in 10.0 mi East 5.8 mph - N/A   Clear
2:15 AM 50.9 °F - 35.1 °F 55% 30.07 in 10.0 mi ESE 3.5 mph - N/A   Clear
2:35 AM 50.2 °F - 34.5 °F 55% 30.06 in 10.0 mi East 3.5 mph - N/A   Clear
2:55 AM 49.1 °F - 34.2 °F 56% 30.05 in 10.0 mi East 5.8 mph - N/A   Clear
3:15 AM 49.3 °F - 34.2 °F 56% 30.05 in 10.0 mi East 5.8 mph - N/A   Clear
3:35 AM 49.6 °F - 34.5 °F 56% 30.05 in 10.0 mi East 5.8 mph - N/A   Scattered Clouds
3:55 AM 49.1 °F - 34.0 °F 56% 30.05 in 10.0 mi East 5.8 mph - N/A   Scattered Clouds
4:15 AM 48.2 °F - 34.3 °F 59% 30.06 in 10.0 mi ESE 5.8 mph - N/A   Scattered Clouds
4:35 AM 48.2 °F - 34.0 °F 58% 30.06 in 10.0 mi East 6.9 mph - N/A   Scattered Clouds
4:55 AM 47.7 °F - 33.3 °F 57% 30.07 in 10.0 mi East 6.9 mph - N/A   Clear
5:15 AM 47.3 °F - 33.3 °F 58% 30.07 in 10.0 mi East 10.4 mph - N/A   Scattered Clouds
5:35 AM 46.4 °F 41.9 °F 32.9 °F 59% 30.06 in 10.0 mi East 9.2 mph 17.3 mph N/A   Clear
5:55 AM 45.5 °F 41.3 °F 32.4 °F 60% 30.07 in 10.0 mi ESE 8.1 mph - N/A   Clear
6:15 AM 44.2 °F 39.2 °F 32.9 °F 64% 30.06 in 10.0 mi ESE 9.2 mph - N/A   Clear
6:35 AM 43.7 °F 39.1 °F 33.1 °F 66% 30.07 in 10.0 mi ESE 8.1 mph - N/A   Scattered Clouds
6:55 AM 44.1 °F 39.0 °F 33.3 °F 66% 30.08 in 10.0 mi ESE 9.2 mph - N/A   Scattered Clouds
7:15 AM 44.6 °F 39.7 °F 32.9 °F 64% 30.09 in 10.0 mi ESE 9.2 mph - N/A   Scattered Clouds
7:35 AM 45.0 °F 38.9 °F 33.3 °F 64% 30.09 in 10.0 mi ESE 12.7 mph - N/A   Clear
7:55 AM 45.5 °F 39.6 °F 33.4 °F 63% 30.11 in 10.0 mi ESE 12.7 mph 20.7 mph N/A   Clear
8:15 AM 45.1 °F 38.4 °F 33.6 °F 64% 30.11 in 10.0 mi SE 15.0 mph 21.9 mph N/A   Clear
8:35 AM 45.5 °F 40.8 °F 34.7 °F 66% 30.11 in 10.0 mi ESE 9.2 mph 16.1 mph N/A   Clear
8:55 AM 45.9 °F 40.0 °F 35.1 °F 66% 30.10 in 10.0 mi SE 12.7 mph 17.3 mph N/A   Clear
9:15 AM 45.9 °F 40.0 °F 34.5 °F 65% 30.09 in 10.0 mi ESE 12.7 mph - N/A   Clear
9:35 AM 46.8 °F - 34.3 °F 62% 30.09 in 10.0 mi ESE 15.0 mph 20.7 mph N/A   Clear
9:55 AM 47.7 °F - 34.5 °F 60% 30.09 in 10.0 mi ESE 13.8 mph - N/A   Clear
10:15 AM 47.5 °F - 34.5 °F 61% 30.09 in 10.0 mi SE 12.7 mph 18.4 mph N/A   Scattered Clouds
10:35 AM 47.7 °F - 34.7 °F 61% 30.09 in 10.0 mi SE 9.2 mph 16.1 mph N/A   Scattered Clouds
10:55 AM 49.1 °F - 33.8 °F 56% 30.08 in 10.0 mi SE 12.7 mph 19.6 mph N/A   Clear
11:15 AM 50.4 °F - 32.9 °F 51% 30.08 in 10.0 mi SE 18.4 mph 24.2 mph N/A   Clear
11:35 AM 50.7 °F - 32.5 °F 50% 30.07 in 10.0 mi SE 18.4 mph 25.3 mph N/A   Clear
11:55 AM 50.9 °F - 32.4 °F 49% 30.06 in 10.0 mi SE 18.4 mph 24.2 mph N/A   Clear
12:15 PM 50.0 °F - 32.7 °F 52% 30.04 in 10.0 mi SE 16.1 mph 21.9 mph N/A   Clear
12:35 PM 48.2 °F - 35.1 °F 60% 30.04 in 10.0 mi SE 16.1 mph 21.9 mph N/A Rain Light Rain
1:15 PM 47.5 °F - 36.3 °F 65% 30.04 in 10.0 mi SE 16.1 mph - N/A Rain Light Rain
1:35 PM 46.8 °F - 37.0 °F 69% 30.04 in 10.0 mi ESE 8.1 mph - N/A Rain Rain
1:55 PM 46.2 °F 42.7 °F 39.9 °F 79% 30.03 in 5.0 mi ESE 6.9 mph - N/A Rain Rain
2:15 PM 45.9 °F 40.0 °F 40.5 °F 81% 30.00 in 10.0 mi ESE 12.7 mph 17.3 mph 0.01 in Rain Light Rain
2:55 PM 45.9 °F 39.4 °F 39.9 °F 80% 30.01 in 10.0 mi SE 15.0 mph 19.6 mph 0.01 in Rain Light Rain
3:15 PM 45.5 °F 39.2 °F 40.3 °F 82% 29.97 in 10.0 mi ESE 13.8 mph 20.7 mph N/A Rain Light Rain
3:35 PM 45.5 °F 38.1 °F 40.1 °F 81% 30.00 in 10.0 mi SE 18.4 mph 21.9 mph N/A Rain Light Rain
3:55 PM 46.2 °F 40.5 °F 40.3 °F 80% 29.98 in 10.0 mi SE 12.7 mph 21.9 mph N/A   Scattered Clouds
4:15 PM 47.5 °F - 41.0 °F 78% 29.94 in 10.0 mi ESE 23.0 mph 28.8 mph N/A   Clear
4:35 PM 47.8 °F - 40.5 °F 76% 29.94 in 10.0 mi ESE 15.0 mph 25.3 mph N/A   Clear
4:55 PM 48.4 °F - 39.7 °F 72% 29.95 in 10.0 mi ESE 12.7 mph 21.9 mph N/A   Clear
5:15 PM 48.4 °F - 39.4 °F 71% 29.94 in 10.0 mi ESE 11.5 mph 19.6 mph N/A   Clear
5:35 PM 48.4 °F - 39.6 °F 72% 29.92 in 10.0 mi ESE 16.1 mph 21.9 mph N/A   Clear
5:55 PM 47.7 °F - 40.3 °F 76% 29.91 in 10.0 mi ESE 13.8 mph 21.9 mph N/A Rain Light Rain
6:15 PM 47.8 °F - 40.1 °F 75% 29.91 in 10.0 mi ESE 15.0 mph 24.2 mph N/A Rain Rain
6:35 PM 48.2 °F - 40.5 °F 75% 29.90 in 10.0 mi ESE 13.8 mph 21.9 mph N/A   Light Drizzle
6:55 PM 47.8 °F - 40.5 °F 76% 29.86 in 10.0 mi ESE 17.3 mph 25.3 mph N/A   Clear
7:15 PM 48.2 °F - 40.3 °F 74% 29.87 in 10.0 mi ESE 16.1 mph 24.2 mph N/A   Scattered Clouds
7:35 PM 48.2 °F - 40.5 °F 75% 29.86 in 10.0 mi ESE 12.7 mph 20.7 mph N/A   Scattered Clouds
7:55 PM 48.7 °F - 40.1 °F 72% 29.87 in 10.0 mi SE 15.0 mph 20.7 mph N/A   Clear
8:15 PM 48.4 °F - 40.5 °F 74% 29.86 in 10.0 mi ESE 12.7 mph 20.7 mph N/A   Scattered Clouds
8:35 PM 48.6 °F - 40.1 °F 73% 29.86 in 10.0 mi ESE 13.8 mph 20.7 mph N/A   Clear
8:55 PM 48.6 °F - 39.9 °F 72% 29.85 in 10.0 mi ESE 17.3 mph 23.0 mph N/A   Clear
9:15 PM 48.4 °F - 39.7 °F 72% 29.84 in 10.0 mi ESE 16.1 mph 23.0 mph N/A   Clear
9:35 PM 48.7 °F - 39.6 °F 71% 29.82 in 10.0 mi SE 19.6 mph 26.5 mph N/A   Clear
9:55 PM 49.5 °F - 38.5 °F 66% 29.81 in 10.0 mi SE 17.3 mph 27.6 mph N/A   Clear
10:15 PM 49.5 °F - 38.1 °F 65% 29.81 in 10.0 mi SE 20.7 mph 29.9 mph N/A   Clear
10:35 PM 49.6 °F - 38.1 °F 65% 29.82 in 10.0 mi SE 16.1 mph 26.5 mph N/A   Clear
10:55 PM 50.0 °F - 37.8 °F 63% 29.83 in 10.0 mi SE 13.8 mph 18.4 mph N/A   Clear
11:15 PM 49.5 °F - 38.3 °F 65% 29.85 in 10.0 mi ESE 8.1 mph - N/A   Clear
11:35 PM 49.5 °F - 38.3 °F 65% 29.84 in 10.0 mi SE 11.5 mph - N/A   Clear
11:55 PM 49.3 °F - 38.3 °F 66% 29.84 in 10.0 mi ESE 9.2 mph - N/A   Clear